Time,TemperatureF,DewpointF,PressureIn,WindDirection,WindDirectionDegrees,WindSpeedMPH,WindSpeedGustMPH,Humidity,HourlyPrecipIn,Conditions,Clouds,dailyrainin,SoftwareType,DateUTC
2013-08-06 00:01:00,65.7,61.4,29.80,NW,318,3.0,4.0,86,0.00,,,0.00,Wunderground v.1.15,2013-08-06 05:01:00,
2013-08-06 00:06:00,65.2,61.2,29.80,NW,309,4.0,4.0,87,0.00,,,0.00,Wunderground v.1.15,2013-08-06 05:06:00,
2013-08-06 00:12:00,65.3,61.7,29.81,NW,307,3.0,5.0,88,0.00,,,0.00,Wunderground v.1.15,2013-08-06 05:12:00,
2013-08-06 00:18:00,65.5,61.5,29.80,NNW,336,3.0,4.0,87,0.00,,,0.00,Wunderground v.1.15,2013-08-06 05:18:00,
2013-08-06 00:23:00,65.4,61.1,29.81,NNW,336,2.0,4.0,86,0.00,,,0.00,Wunderground v.1.15,2013-08-06 05:23:00,
2013-08-06 00:29:00,64.9,60.9,29.81,NW,321,2.0,3.0,87,0.00,,,0.00,Wunderground v.1.15,2013-08-06 05:29:00,
2013-08-06 00:35:00,64.4,60.8,29.81,NW,316,3.0,3.0,88,0.00,,,0.00,Wunderground v.1.15,2013-08-06 05:35:00,
2013-08-06 00:42:00,64.1,60.5,29.81,NNW,338,2.0,3.0,88,0.00,,,0.00,Wunderground v.1.15,2013-08-06 05:42:00,
2013-08-06 00:47:00,63.8,60.2,29.81,NW,326,3.0,3.0,88,0.00,,,0.00,Wunderground v.1.15,2013-08-06 05:47:00,
2013-08-06 00:53:00,63.6,60.0,29.81,NW,319,3.0,5.0,88,0.00,,,0.00,Wunderground v.1.15,2013-08-06 05:53:00,
2013-08-06 00:59:00,63.4,59.8,29.81,NW,318,3.0,4.0,88,0.00,,,0.00,Wunderground v.1.15,2013-08-06 05:59:00,
2013-08-06 01:05:00,63.3,60.0,29.80,NW,316,2.0,3.0,89,0.00,,,0.00,Wunderground v.1.15,2013-08-06 06:05:00,
2013-08-06 01:10:00,63.2,59.6,29.80,NNW,327,3.0,4.0,88,0.00,,,0.00,Wunderground v.1.15,2013-08-06 06:10:00,
2013-08-06 01:16:00,63.0,59.4,29.80,NNW,329,3.0,4.0,88,0.00,,,0.00,Wunderground v.1.15,2013-08-06 06:16:00,
2013-08-06 01:21:00,62.7,59.4,29.80,NNW,343,3.0,4.0,89,0.00,,,0.00,Wunderground v.1.15,2013-08-06 06:21:00,
2013-08-06 01:27:00,62.3,59.0,29.80,NNW,343,1.0,3.0,89,0.00,,,0.00,Wunderground v.1.15,2013-08-06 06:27:00,
2013-08-06 01:33:00,62.1,59.1,29.80,North,5,2.0,3.0,90,0.00,,,0.00,Wunderground v.1.15,2013-08-06 06:33:00,
2013-08-06 01:39:00,62.1,59.4,29.82,North,5,3.0,3.0,91,0.00,,,0.00,Wunderground v.1.15,2013-08-06 06:39:00,
2013-08-06 01:45:00,62.3,59.6,29.81,North,5,3.0,3.0,91,0.00,,,0.00,Wunderground v.1.15,2013-08-06 06:45:00,
2013-08-06 01:50:00,62.3,59.6,29.82,North,5,1.0,3.0,91,0.00,,,0.00,Wunderground v.1.15,2013-08-06 06:50:00,
2013-08-06 01:56:00,62.3,59.6,29.82,North,5,2.0,2.0,91,0.00,,,0.00,Wunderground v.1.15,2013-08-06 06:56:00,
2013-08-06 02:02:00,62.3,59.6,29.82,East,88,2.0,2.0,91,0.00,,,0.00,Wunderground v.1.15,2013-08-06 07:02:00,
2013-08-06 02:07:00,62.5,60.1,29.82,NE,40,3.0,3.0,92,0.00,,,0.00,Wunderground v.1.15,2013-08-06 07:07:00,
2013-08-06 02:12:00,62.5,59.8,29.82,NE,40,2.0,3.0,91,0.00,,,0.00,Wunderground v.1.15,2013-08-06 07:12:00,
2013-08-06 02:17:00,62.6,60.2,29.81,NE,40,2.0,3.0,92,0.00,,,0.00,Wunderground v.1.15,2013-08-06 07:17:00,
2013-08-06 02:22:00,62.7,60.0,29.81,NE,40,2.0,3.0,91,0.00,,,0.00,Wunderground v.1.15,2013-08-06 07:22:00,
2013-08-06 02:27:00,62.3,59.3,29.81,NE,40,1.0,2.0,90,0.00,,,0.00,Wunderground v.1.15,2013-08-06 07:27:00,
2013-08-06 02:32:00,62.1,59.7,29.81,NE,40,3.0,3.0,92,0.00,,,0.00,Wunderground v.1.15,2013-08-06 07:32:00,
2013-08-06 02:37:00,62.1,59.7,29.80,NE,40,2.0,2.0,92,0.00,,,0.00,Wunderground v.1.15,2013-08-06 07:37:00,
2013-08-06 02:42:00,61.9,59.5,29.80,NE,40,2.0,3.0,92,0.00,,,0.00,Wunderground v.1.15,2013-08-06 07:42:00,
2013-08-06 02:43:00,61.9,59.5,29.80,NE,40,2.0,3.0,92,0.00,,,0.00,Wunderground v.1.15,2013-08-06 07:43:00,
2013-08-06 02:48:00,61.3,58.3,29.79,NNE,19,3.0,4.0,90,0.00,,,0.00,Wunderground v.1.15,2013-08-06 07:48:00,
2013-08-06 02:53:00,60.9,58.3,29.79,NNE,17,3.0,4.0,91,0.00,,,0.00,Wunderground v.1.15,2013-08-06 07:53:00,
2013-08-06 02:58:00,60.5,58.2,29.79,North,9,2.0,4.0,92,0.00,,,0.00,Wunderground v.1.15,2013-08-06 07:58:00,
2013-08-06 03:03:00,60.1,57.5,29.79,NNE,23,2.0,4.0,91,0.00,,,0.00,Wunderground v.1.15,2013-08-06 08:03:00,
2013-08-06 03:08:00,60.0,58.3,29.79,NNE,26,3.0,3.0,94,0.00,,,0.00,Wunderground v.1.15,2013-08-06 08:08:00,
2013-08-06 03:13:00,59.9,58.2,29.79,North,5,4.0,5.0,94,0.00,,,0.00,Wunderground v.1.15,2013-08-06 08:13:00,
2013-08-06 03:18:00,59.7,57.7,29.79,NNE,26,4.0,5.0,93,0.00,,,0.00,Wunderground v.1.15,2013-08-06 08:18:00,
2013-08-06 03:23:00,59.6,57.9,29.78,NNE,26,4.0,5.0,94,0.00,,,0.00,Wunderground v.1.15,2013-08-06 08:23:00,
2013-08-06 03:28:00,59.7,58.3,29.78,NNE,17,4.0,5.0,95,0.00,,,0.00,Wunderground v.1.15,2013-08-06 08:28:00,
2013-08-06 03:33:00,59.7,58.3,29.78,NNE,30,3.0,5.0,95,0.00,,,0.00,Wunderground v.1.15,2013-08-06 08:33:00,
2013-08-06 03:38:00,59.6,58.2,29.79,NNE,24,3.0,3.0,95,0.00,,,0.00,Wunderground v.1.15,2013-08-06 08:38:00,
2013-08-06 03:43:00,59.6,58.2,29.78,NE,43,3.0,4.0,95,0.00,,,0.00,Wunderground v.1.15,2013-08-06 08:43:00,
2013-08-06 03:48:00,59.9,58.8,29.78,NE,43,2.0,3.0,96,0.00,,,0.00,Wunderground v.1.15,2013-08-06 08:48:00,
2013-08-06 03:53:00,60.0,58.9,29.78,NE,43,2.0,3.0,96,0.00,,,0.00,Wunderground v.1.15,2013-08-06 08:53:00,
2013-08-06 03:58:00,59.9,58.8,29.78,NE,43,2.0,2.0,96,0.00,,,0.00,Wunderground v.1.15,2013-08-06 08:58:00,
2013-08-06 04:03:00,59.8,58.4,29.78,NE,43,2.0,2.0,95,0.00,,,0.00,Wunderground v.1.15,2013-08-06 09:03:00,
2013-08-06 04:09:00,59.7,58.3,29.78,NE,43,1.0,3.0,95,0.00,,,0.00,Wunderground v.1.15,2013-08-06 09:09:00,
2013-08-06 04:14:00,59.6,58.2,29.78,NE,43,1.0,3.0,95,0.00,,,0.00,Wunderground v.1.15,2013-08-06 09:14:00,
2013-08-06 04:19:00,59.5,58.1,29.78,NE,43,2.0,2.0,95,0.00,,,0.00,Wunderground v.1.15,2013-08-06 09:19:00,
2013-08-06 04:24:00,59.6,58.2,29.79,NE,43,0.0,2.0,95,0.00,,,0.00,Wunderground v.1.15,2013-08-06 09:24:00,
2013-08-06 04:29:00,59.8,58.7,29.79,WNW,284,2.0,3.0,96,0.00,,,0.00,Wunderground v.1.15,2013-08-06 09:29:00,
2013-08-06 04:34:00,59.8,58.7,29.79,WNW,284,1.0,3.0,96,0.00,,,0.00,Wunderground v.1.15,2013-08-06 09:34:00,
2013-08-06 04:39:00,59.8,58.7,29.79,SSW,196,1.0,3.0,96,0.00,,,0.00,Wunderground v.1.15,2013-08-06 09:39:00,
2013-08-06 04:44:00,59.6,58.2,29.79,SSW,196,1.0,3.0,95,0.00,,,0.00,Wunderground v.1.15,2013-08-06 09:44:00,
2013-08-06 04:49:00,59.6,58.2,29.78,South,169,2.0,4.0,95,0.00,,,0.00,Wunderground v.1.15,2013-08-06 09:49:00,
2013-08-06 04:54:00,59.3,57.9,29.77,SSE,156,3.0,5.0,95,0.00,,,0.00,Wunderground v.1.15,2013-08-06 09:54:00,
2013-08-06 04:59:00,58.9,57.2,29.76,SSE,148,3.0,7.0,94,0.00,,,0.00,Wunderground v.1.15,2013-08-06 09:59:00,
2013-08-06 05:04:00,58.5,56.8,29.75,SE,142,5.0,7.0,94,0.00,,,0.00,Wunderground v.1.15,2013-08-06 10:04:00,
2013-08-06 05:09:00,58.4,57.0,29.75,SSE,153,2.0,5.0,95,0.00,,,0.00,Wunderground v.1.15,2013-08-06 10:09:00,
2013-08-06 05:14:00,59.3,58.4,29.75,SE,126,5.0,6.0,97,0.00,,,0.00,Wunderground v.1.15,2013-08-06 10:14:00,
2013-08-06 05:19:00,60.3,59.4,29.76,SSE,153,2.0,7.0,97,0.00,,,0.00,Wunderground v.1.15,2013-08-06 10:19:00,
2013-08-06 05:24:00,60.2,59.3,29.77,ESE,103,2.0,3.0,97,0.00,,,0.00,Wunderground v.1.15,2013-08-06 10:24:00,
2013-08-06 05:29:00,59.1,58.0,29.77,NNE,32,2.0,3.0,96,0.00,,,0.00,Wunderground v.1.15,2013-08-06 10:29:00,
2013-08-06 05:34:00,58.4,57.0,29.77,ENE,58,2.0,3.0,95,0.00,,,0.00,Wunderground v.1.15,2013-08-06 10:34:00,
2013-08-06 05:39:00,58.7,57.6,29.77,ENE,58,2.0,3.0,96,0.00,,,0.00,Wunderground v.1.15,2013-08-06 10:39:00,
2013-08-06 05:44:00,58.9,57.8,29.77,ENE,65,1.0,2.0,96,0.00,,,0.00,Wunderground v.1.15,2013-08-06 10:44:00,
2013-08-06 05:49:00,59.1,58.2,29.77,NE,48,2.0,3.0,97,0.00,,,0.00,Wunderground v.1.15,2013-08-06 10:49:00,
2013-08-06 05:54:00,58.9,57.8,29.78,NE,48,2.0,2.0,96,0.00,,,0.00,Wunderground v.1.15,2013-08-06 10:54:00,
2013-08-06 05:59:00,58.8,57.7,29.78,NE,48,1.0,3.0,96,0.00,,,0.00,Wunderground v.1.15,2013-08-06 10:59:00,
2013-08-06 06:04:00,59.0,57.9,29.79,SSE,153,1.0,1.0,96,0.00,,,0.00,Wunderground v.1.15,2013-08-06 11:04:00,
2013-08-06 06:09:00,59.3,58.4,29.80,SSE,153,2.0,3.0,97,0.00,,,0.00,Wunderground v.1.15,2013-08-06 11:09:00,
2013-08-06 06:14:00,59.3,58.4,29.80,SSE,153,2.0,2.0,97,0.00,,,0.00,Wunderground v.1.15,2013-08-06 11:14:00,
2013-08-06 06:19:00,59.3,58.4,29.80,SW,223,2.0,3.0,97,0.00,,,0.00,Wunderground v.1.15,2013-08-06 11:19:00,
2013-08-06 06:25:00,59.0,57.9,29.81,WSW,248,3.0,5.0,96,0.00,,,0.00,Wunderground v.1.15,2013-08-06 11:25:00,
2013-08-06 06:30:00,58.8,57.7,29.80,SW,226,3.0,5.0,96,0.00,,,0.00,Wunderground v.1.15,2013-08-06 11:30:00,
2013-08-06 06:35:00,58.8,57.7,29.79,SSW,198,4.0,4.0,96,0.00,,,0.00,Wunderground v.1.15,2013-08-06 11:35:00,
2013-08-06 06:40:00,59.1,58.0,29.79,South,190,3.0,5.0,96,0.00,,,0.00,Wunderground v.1.15,2013-08-06 11:40:00,
2013-08-06 06:45:00,59.2,58.3,29.78,South,175,2.0,3.0,97,0.00,,,0.00,Wunderground v.1.15,2013-08-06 11:45:00,
2013-08-06 06:50:00,59.3,58.4,29.79,South,178,2.0,3.0,97,0.00,,,0.00,Wunderground v.1.15,2013-08-06 11:50:00,
2013-08-06 06:55:00,59.8,58.9,29.79,SSW,213,2.0,2.0,97,0.00,,,0.00,Wunderground v.1.15,2013-08-06 11:55:00,
2013-08-06 07:00:00,60.0,59.1,29.80,WSW,243,2.0,3.0,97,0.00,,,0.00,Wunderground v.1.15,2013-08-06 12:00:00,
2013-08-06 07:05:00,60.2,59.3,29.81,WSW,243,1.0,2.0,97,0.00,,,0.00,Wunderground v.1.15,2013-08-06 12:05:00,
2013-08-06 07:10:00,60.5,59.6,29.81,WSW,243,2.0,3.0,97,0.00,,,0.00,Wunderground v.1.15,2013-08-06 12:10:00,
2013-08-06 07:15:00,60.6,59.7,29.80,SSW,200,2.0,2.0,97,0.00,,,0.00,Wunderground v.1.15,2013-08-06 12:15:00,
2013-08-06 07:20:00,60.9,60.0,29.80,SSW,201,2.0,4.0,97,0.00,,,0.00,Wunderground v.1.15,2013-08-06 12:20:00,
2013-08-06 07:25:00,61.3,60.4,29.81,SW,218,3.0,3.0,97,0.00,,,0.00,Wunderground v.1.15,2013-08-06 12:25:00,
2013-08-06 07:30:00,61.3,60.4,29.81,SSW,212,4.0,5.0,97,0.00,,,0.00,Wunderground v.1.15,2013-08-06 12:30:00,
2013-08-06 07:35:00,61.4,60.5,29.82,SSW,209,5.0,6.0,97,0.00,,,0.00,Wunderground v.1.15,2013-08-06 12:35:00,
2013-08-06 07:40:00,61.7,60.8,29.81,SSW,202,3.0,6.0,97,0.00,,,0.00,Wunderground v.1.15,2013-08-06 12:40:00,
2013-08-06 07:45:00,62.1,61.2,29.82,SSW,194,4.0,6.0,97,0.00,,,0.00,Wunderground v.1.15,2013-08-06 12:45:00,
2013-08-06 07:50:00,62.4,61.5,29.82,SSW,202,4.0,6.0,97,0.00,,,0.00,Wunderground v.1.15,2013-08-06 12:50:00,
2013-08-06 07:55:00,62.5,61.6,29.82,South,191,4.0,5.0,97,0.00,,,0.00,Wunderground v.1.15,2013-08-06 12:55:00,
2013-08-06 08:00:00,62.8,61.9,29.82,South,188,4.0,5.0,97,0.00,,,0.00,Wunderground v.1.15,2013-08-06 13:00:00,
2013-08-06 08:05:00,63.2,62.0,29.82,South,176,4.0,5.0,96,0.00,,,0.00,Wunderground v.1.15,2013-08-06 13:05:00,
2013-08-06 08:10:00,63.6,62.4,29.81,South,182,3.0,5.0,96,0.00,,,0.00,Wunderground v.1.15,2013-08-06 13:10:00,
2013-08-06 08:15:00,63.9,62.7,29.82,SSW,200,3.0,4.0,96,0.00,,,0.00,Wunderground v.1.15,2013-08-06 13:15:00,
2013-08-06 08:20:00,64.1,62.6,29.81,SSW,201,3.0,5.0,95,0.00,,,0.00,Wunderground v.1.15,2013-08-06 13:20:00,
2013-08-06 08:25:00,64.3,62.8,29.81,SW,225,4.0,5.0,95,0.00,,,0.00,Wunderground v.1.15,2013-08-06 13:25:00,
2013-08-06 08:30:00,64.5,62.7,29.81,SSW,195,7.0,7.0,94,0.00,,,0.00,Wunderground v.1.15,2013-08-06 13:30:00,
2013-08-06 08:35:00,64.5,62.7,29.80,SSW,193,5.0,7.0,94,0.00,,,0.00,Wunderground v.1.15,2013-08-06 13:35:00,
2013-08-06 08:40:00,64.7,62.9,29.80,South,190,3.0,7.0,94,0.00,,,0.00,Wunderground v.1.15,2013-08-06 13:40:00,
2013-08-06 08:45:00,64.9,63.1,29.80,South,180,3.0,4.0,94,0.00,,,0.00,Wunderground v.1.15,2013-08-06 13:45:00,
2013-08-06 08:50:00,65.2,63.4,29.79,South,175,7.0,7.0,94,0.00,,,0.00,Wunderground v.1.15,2013-08-06 13:50:00,
2013-08-06 08:55:00,65.5,63.7,29.78,SSE,164,6.0,7.0,94,0.00,,,0.00,Wunderground v.1.15,2013-08-06 13:55:00,
2013-08-06 09:00:00,65.6,63.8,29.78,South,182,4.0,7.0,94,0.00,,,0.00,Wunderground v.1.15,2013-08-06 14:00:00,
2013-08-06 09:05:00,65.8,64.0,29.78,SSE,168,5.0,8.0,94,0.00,,,0.00,Wunderground v.1.15,2013-08-06 14:05:00,
2013-08-06 09:10:00,66.0,64.2,29.77,South,176,4.0,9.0,94,0.00,,,0.00,Wunderground v.1.15,2013-08-06 14:10:00,
2013-08-06 09:15:00,66.4,64.3,29.78,South,172,2.0,5.0,93,0.00,,,0.00,Wunderground v.1.15,2013-08-06 14:15:00,
2013-08-06 09:20:00,66.7,64.3,29.78,SSE,150,3.0,5.0,92,0.00,,,0.00,Wunderground v.1.15,2013-08-06 14:20:00,
2013-08-06 09:25:00,67.1,64.4,29.77,SE,131,4.0,4.0,91,0.00,,,0.00,Wunderground v.1.15,2013-08-06 14:25:00,
2013-08-06 09:30:00,67.1,64.4,29.76,ESE,123,7.0,8.0,91,0.00,,,0.00,Wunderground v.1.15,2013-08-06 14:30:00,
2013-08-06 09:35:00,67.0,64.3,29.75,SSE,155,8.0,9.0,91,0.00,,,0.00,Wunderground v.1.15,2013-08-06 14:35:00,
2013-08-06 09:40:00,66.9,64.5,29.74,SE,136,10.0,11.0,92,0.00,,,0.00,Wunderground v.1.15,2013-08-06 14:40:00,
2013-08-06 09:45:00,67.0,64.6,29.71,SSE,148,18.0,18.0,92,0.00,,,0.00,Wunderground v.1.15,2013-08-06 14:45:00,
2013-08-06 09:50:00,67.4,64.7,29.71,ESE,116,8.0,18.0,91,0.00,,,0.00,Wunderground v.1.15,2013-08-06 14:50:00,
2013-08-06 09:55:00,67.9,64.9,29.71,SSE,156,12.0,15.0,90,0.00,,,0.00,Wunderground v.1.15,2013-08-06 14:55:00,
2013-08-06 10:00:00,68.5,64.8,29.73,SSE,158,9.0,16.0,88,0.00,,,0.00,Wunderground v.1.15,2013-08-06 15:00:00,
2013-08-06 10:05:00,69.2,65.5,29.73,South,180,5.0,11.0,88,0.00,,,0.00,Wunderground v.1.15,2013-08-06 15:05:00,
2013-08-06 10:10:00,69.5,65.5,29.72,South,180,9.0,12.0,87,0.00,,,0.00,Wunderground v.1.15,2013-08-06 15:10:00,
2013-08-06 10:15:00,69.7,65.3,29.71,South,182,6.0,12.0,86,0.00,,,0.00,Wunderground v.1.15,2013-08-06 15:15:00,
2013-08-06 10:20:00,70.1,65.7,29.72,South,182,7.0,12.0,86,0.00,,,0.00,Wunderground v.1.15,2013-08-06 15:20:00,
2013-08-06 10:25:00,70.4,65.7,29.72,South,183,4.0,9.0,85,0.00,,,0.00,Wunderground v.1.15,2013-08-06 15:25:00,
2013-08-06 10:31:00,71.1,65.3,29.72,South,190,5.0,12.0,82,0.00,,,0.00,Wunderground v.1.15,2013-08-06 15:31:00,
2013-08-06 10:36:00,71.7,65.9,29.71,South,187,9.0,9.0,82,0.00,,,0.00,Wunderground v.1.15,2013-08-06 15:36:00,
2013-08-06 10:41:00,72.2,65.0,29.72,South,175,4.0,11.0,78,0.00,,,0.00,Wunderground v.1.15,2013-08-06 15:41:00,
2013-08-06 10:46:00,72.8,65.9,29.74,NNW,335,5.0,6.0,79,0.00,,,0.00,Wunderground v.1.15,2013-08-06 15:46:00,
2013-08-06 10:51:00,73.1,67.3,29.74,NNW,335,10.0,11.0,82,0.00,,,0.00,Wunderground v.1.15,2013-08-06 15:51:00,
2013-08-06 10:56:00,73.2,66.3,29.74,NW,319,2.0,6.0,79,0.00,,,0.00,Wunderground v.1.15,2013-08-06 15:56:00,
2013-08-06 11:01:00,73.9,66.6,29.74,NW,317,3.0,6.0,78,0.00,,,0.00,Wunderground v.1.15,2013-08-06 16:01:00,
2013-08-06 11:06:00,74.4,66.7,29.74,NW,325,3.0,4.0,77,0.00,,,0.00,Wunderground v.1.15,2013-08-06 16:06:00,
2013-08-06 11:11:00,74.7,66.2,29.75,West,270,3.0,6.0,75,0.00,,,0.00,Wunderground v.1.15,2013-08-06 16:11:00,
2013-08-06 11:16:00,74.8,66.3,29.76,West,277,2.0,4.0,75,0.00,,,0.00,Wunderground v.1.15,2013-08-06 16:16:00,
2013-08-06 11:21:00,75.3,66.4,29.76,West,273,4.0,7.0,74,0.00,,,0.00,Wunderground v.1.15,2013-08-06 16:21:00,
2013-08-06 11:26:00,75.4,66.9,29.76,West,274,3.0,4.0,75,0.00,,,0.00,Wunderground v.1.15,2013-08-06 16:26:00,
2013-08-06 11:31:00,76.2,66.9,29.76,WSW,239,6.0,8.0,73,0.00,,,0.00,Wunderground v.1.15,2013-08-06 16:31:00,
2013-08-06 11:36:00,77.0,67.7,29.76,SW,226,3.0,4.0,73,0.00,,,0.00,Wunderground v.1.15,2013-08-06 16:36:00,
2013-08-06 11:41:00,77.6,67.4,29.76,SSW,207,6.0,11.0,71,0.00,,,0.00,Wunderground v.1.15,2013-08-06 16:41:00,
2013-08-06 11:46:00,78.0,67.4,29.76,SW,225,7.0,11.0,70,0.00,,,0.00,Wunderground v.1.15,2013-08-06 16:46:00,
2013-08-06 11:51:00,78.2,67.2,29.76,SW,225,7.0,11.0,69,0.00,,,0.00,Wunderground v.1.15,2013-08-06 16:51:00,
2013-08-06 11:56:00,79.3,67.8,29.76,SSW,213,7.0,10.0,68,0.00,,,0.00,Wunderground v.1.15,2013-08-06 16:56:00,
2013-08-06 12:01:00,79.0,67.5,29.76,WSW,243,10.0,14.0,68,0.00,,,0.00,Wunderground v.1.15,2013-08-06 17:01:00,
2013-08-06 12:06:00,79.6,67.2,29.75,WSW,244,9.0,9.0,66,0.00,,,0.00,Wunderground v.1.15,2013-08-06 17:06:00,
2013-08-06 12:11:00,79.8,67.4,29.75,SSW,209,6.0,10.0,66,0.00,,,0.00,Wunderground v.1.15,2013-08-06 17:11:00,
2013-08-06 12:16:00,79.9,67.1,29.75,SSW,207,9.0,12.0,65,0.00,,,0.00,Wunderground v.1.15,2013-08-06 17:16:00,
2013-08-06 12:21:00,80.1,66.4,29.75,SW,214,9.0,14.0,63,0.00,,,0.00,Wunderground v.1.15,2013-08-06 17:21:00,
2013-08-06 12:26:00,80.0,67.6,29.75,SW,234,9.0,13.0,66,0.00,,,0.00,Wunderground v.1.15,2013-08-06 17:26:00,
2013-08-06 12:27:00,80.1,67.7,29.75,SW,231,11.0,13.0,66,0.00,,,0.00,Wunderground v.1.15,2013-08-06 17:27:00,
2013-08-06 12:32:00,80.3,67.0,29.75,WSW,245,8.0,15.0,64,0.00,,,0.00,Wunderground v.1.15,2013-08-06 17:32:00,
2013-08-06 12:37:00,80.6,67.3,29.75,SW,227,6.0,13.0,64,0.00,,,0.00,Wunderground v.1.15,2013-08-06 17:37:00,
2013-08-06 12:42:00,81.0,67.7,29.75,SW,229,8.0,13.0,64,0.00,,,0.00,Wunderground v.1.15,2013-08-06 17:42:00,
2013-08-06 12:47:00,81.8,68.4,29.75,WSW,238,8.0,12.0,64,0.00,,,0.00,Wunderground v.1.15,2013-08-06 17:47:00,
2013-08-06 12:52:00,82.2,69.7,29.75,West,267,11.0,13.0,66,0.00,,,0.00,Wunderground v.1.15,2013-08-06 17:52:00,
2013-08-06 12:57:00,82.4,67.6,29.75,SW,236,10.0,14.0,61,0.00,,,0.00,Wunderground v.1.15,2013-08-06 17:57:00,
2013-08-06 13:02:00,82.5,66.7,29.75,West,268,8.0,14.0,59,0.00,,,0.00,Wunderground v.1.15,2013-08-06 18:02:00,
2013-08-06 13:07:00,82.6,69.2,29.75,WSW,239,9.0,11.0,64,0.00,,,0.00,Wunderground v.1.15,2013-08-06 18:07:00,
2013-08-06 13:12:00,82.9,69.5,29.75,WSW,252,8.0,14.0,64,0.00,,,0.00,Wunderground v.1.15,2013-08-06 18:12:00,
2013-08-06 13:17:00,83.2,67.9,29.75,WSW,246,8.0,12.0,60,0.00,,,0.00,Wunderground v.1.15,2013-08-06 18:17:00,
2013-08-06 13:22:00,83.3,68.9,29.75,WSW,244,10.0,15.0,62,0.00,,,0.00,Wunderground v.1.15,2013-08-06 18:22:00,
2013-08-06 13:27:00,83.4,68.1,29.75,West,262,10.0,13.0,60,0.00,,,0.00,Wunderground v.1.15,2013-08-06 18:27:00,
2013-08-06 13:32:00,83.9,69.5,29.75,WSW,257,14.0,14.0,62,0.00,,,0.00,Wunderground v.1.15,2013-08-06 18:32:00,
2013-08-06 13:37:00,84.0,68.6,29.75,SW,231,7.0,13.0,60,0.00,,,0.00,Wunderground v.1.15,2013-08-06 18:37:00,
2013-08-06 13:42:00,84.3,69.4,29.75,WSW,240,8.0,13.0,61,0.00,,,0.00,Wunderground v.1.15,2013-08-06 18:42:00,
2013-08-06 13:47:00,84.0,67.6,29.74,West,267,9.0,14.0,58,0.00,,,0.00,Wunderground v.1.15,2013-08-06 18:47:00,
2013-08-06 13:52:00,84.1,67.2,29.74,WSW,242,6.0,14.0,57,0.00,,,0.00,Wunderground v.1.15,2013-08-06 18:52:00,
2013-08-06 13:57:00,84.9,68.0,29.74,West,279,9.0,14.0,57,0.00,,,0.00,Wunderground v.1.15,2013-08-06 18:57:00,
2013-08-06 14:02:00,85.6,68.6,29.74,WSW,255,8.0,14.0,57,0.00,,,0.00,Wunderground v.1.15,2013-08-06 19:02:00,
2013-08-06 14:07:00,85.7,67.1,29.74,WSW,248,9.0,13.0,54,0.00,,,0.00,Wunderground v.1.15,2013-08-06 19:07:00,
2013-08-06 14:13:00,85.9,65.7,29.74,West,264,11.0,13.0,51,0.00,,,0.00,Wunderground v.1.15,2013-08-06 19:13:00,
2013-08-06 14:18:00,85.8,66.1,29.74,West,259,11.0,15.0,52,0.00,,,0.00,Wunderground v.1.15,2013-08-06 19:18:00,
2013-08-06 14:23:00,85.5,65.9,29.74,West,263,9.0,15.0,52,0.00,,,0.00,Wunderground v.1.15,2013-08-06 19:23:00,
2013-08-06 14:28:00,85.5,66.4,29.74,WSW,252,9.0,14.0,53,0.00,,,0.00,Wunderground v.1.15,2013-08-06 19:28:00,
2013-08-06 14:33:00,85.7,66.0,29.74,WSW,239,9.0,14.0,52,0.00,,,0.00,Wunderground v.1.15,2013-08-06 19:33:00,
2013-08-06 14:38:00,85.6,65.4,29.74,West,271,9.0,15.0,51,0.00,,,0.00,Wunderground v.1.15,2013-08-06 19:38:00,
2013-08-06 14:43:00,85.5,65.3,29.74,West,260,10.0,15.0,51,0.00,,,0.00,Wunderground v.1.15,2013-08-06 19:43:00,
2013-08-06 14:48:00,85.7,67.1,29.74,WSW,239,5.0,14.0,54,0.00,,,0.00,Wunderground v.1.15,2013-08-06 19:48:00,
2013-08-06 14:53:00,86.1,66.4,29.74,West,262,11.0,14.0,52,0.00,,,0.00,Wunderground v.1.15,2013-08-06 19:53:00,
2013-08-06 14:58:00,86.0,66.9,29.74,WSW,241,6.0,15.0,53,0.00,,,0.00,Wunderground v.1.15,2013-08-06 19:58:00,
2013-08-06 15:03:00,86.4,65.6,29.74,West,259,7.0,15.0,50,0.00,,,0.00,Wunderground v.1.15,2013-08-06 20:03:00,
2013-08-06 15:08:00,86.3,65.5,29.74,West,273,12.0,13.0,50,0.00,,,0.00,Wunderground v.1.15,2013-08-06 20:08:00,
2013-08-06 15:13:00,86.3,66.6,29.74,West,268,7.0,14.0,52,0.00,,,0.00,Wunderground v.1.15,2013-08-06 20:13:00,
2013-08-06 15:18:00,86.2,65.4,29.74,West,263,6.0,14.0,50,0.00,,,0.00,Wunderground v.1.15,2013-08-06 20:18:00,
2013-08-06 15:23:00,86.0,65.8,29.74,WSW,244,9.0,14.0,51,0.00,,,0.00,Wunderground v.1.15,2013-08-06 20:23:00,
2013-08-06 15:28:00,85.7,66.0,29.74,SW,236,11.0,15.0,52,0.00,,,0.00,Wunderground v.1.15,2013-08-06 20:28:00,
2013-08-06 15:32:00,85.9,66.8,29.74,WSW,257,7.0,15.0,53,0.00,,,0.00,Wunderground v.1.15,2013-08-06 20:32:00,
2013-08-06 15:37:00,86.2,65.9,29.74,West,276,8.0,14.0,51,0.00,,,0.00,Wunderground v.1.15,2013-08-06 20:37:00,
2013-08-06 15:42:00,86.0,66.3,29.74,WSW,257,5.0,14.0,52,0.00,,,0.00,Wunderground v.1.15,2013-08-06 20:42:00,
2013-08-06 15:47:00,86.0,66.9,29.74,WSW,249,10.0,11.0,53,0.00,,,0.00,Wunderground v.1.15,2013-08-06 20:47:00,
2013-08-06 15:52:00,86.3,67.7,29.74,WSW,248,12.0,13.0,54,0.00,,,0.00,Wunderground v.1.15,2013-08-06 20:52:00,
2013-08-06 15:57:00,86.4,65.0,29.74,WSW,242,6.0,14.0,49,0.00,,,0.00,Wunderground v.1.15,2013-08-06 20:57:00,
2013-08-06 16:02:00,86.2,66.5,29.74,West,268,10.0,14.0,52,0.00,,,0.00,Wunderground v.1.15,2013-08-06 21:02:00,
2013-08-06 16:07:00,86.4,66.7,29.74,West,272,7.0,10.0,52,0.00,,,0.00,Wunderground v.1.15,2013-08-06 21:07:00,
2013-08-06 16:12:00,86.5,63.9,29.74,West,269,6.0,11.0,47,0.00,,,0.00,Wunderground v.1.15,2013-08-06 21:12:00,
2013-08-06 16:17:00,86.5,64.5,29.74,WSW,247,12.0,16.0,48,0.00,,,0.00,Wunderground v.1.15,2013-08-06 21:17:00,
2013-08-06 16:22:00,86.1,65.3,29.74,West,263,8.0,16.0,50,0.00,,,0.00,Wunderground v.1.15,2013-08-06 21:22:00,
2013-08-06 16:27:00,85.9,65.1,29.74,West,269,10.0,12.0,50,0.00,,,0.00,Wunderground v.1.15,2013-08-06 21:27:00,
2013-08-06 16:32:00,86.1,64.7,29.75,WSW,252,7.0,12.0,49,0.00,,,0.00,Wunderground v.1.15,2013-08-06 21:32:00,
2013-08-06 16:37:00,86.0,66.3,29.74,WSW,252,9.0,13.0,52,0.00,,,0.00,Wunderground v.1.15,2013-08-06 21:37:00,
2013-08-06 16:42:00,86.0,63.4,29.74,SW,225,9.0,13.0,47,0.00,,,0.00,Wunderground v.1.15,2013-08-06 21:42:00,
2013-08-06 16:47:00,86.5,63.9,29.74,WSW,256,9.0,11.0,47,0.00,,,0.00,Wunderground v.1.15,2013-08-06 21:47:00,
2013-08-06 16:52:00,86.4,65.6,29.74,WSW,246,9.0,12.0,50,0.00,,,0.00,Wunderground v.1.15,2013-08-06 21:52:00,
2013-08-06 16:57:00,86.2,63.6,29.74,WSW,245,8.0,12.0,47,0.00,,,0.00,Wunderground v.1.15,2013-08-06 21:57:00,
2013-08-06 17:02:00,85.9,63.9,29.74,WSW,237,13.0,13.0,48,0.00,,,0.00,Wunderground v.1.15,2013-08-06 22:02:00,
2013-08-06 17:08:00,85.7,64.3,29.74,SW,233,12.0,13.0,49,0.00,,,0.00,Wunderground v.1.15,2013-08-06 22:08:00,
2013-08-06 17:12:00,85.6,63.1,29.74,WSW,240,6.0,13.0,47,0.00,,,0.00,Wunderground v.1.15,2013-08-06 22:12:00,
2013-08-06 17:17:00,86.0,64.6,29.74,West,260,8.0,11.0,49,0.00,,,0.00,Wunderground v.1.15,2013-08-06 22:17:00,
2013-08-06 17:25:00,86.3,63.7,29.74,West,261,7.0,11.0,47,0.00,,,0.00,Wunderground v.1.15,2013-08-06 22:25:00,
2013-08-06 17:34:00,85.7,63.1,29.74,WSW,242,8.0,8.0,47,0.00,,,0.00,Wunderground v.1.15,2013-08-06 22:34:00,
2013-08-06 17:44:00,85.5,61.7,29.73,WSW,252,8.0,8.0,45,0.00,,,0.00,Wunderground v.1.15,2013-08-06 22:44:00,
2013-08-06 17:50:00,85.7,62.5,29.73,West,275,7.0,8.0,46,0.00,,,0.00,Wunderground v.1.15,2013-08-06 22:50:00,
2013-08-06 17:59:00,85.3,62.8,29.73,WSW,247,6.0,7.0,47,0.00,,,0.00,Wunderground v.1.15,2013-08-06 22:59:00,
2013-08-06 18:10:00,84.6,63.9,29.73,WSW,246,8.0,10.0,50,0.00,,,0.00,Wunderground v.1.15,2013-08-06 23:10:00,
2013-08-06 18:15:00,84.4,64.3,29.72,WSW,237,6.0,8.0,51,0.00,,,0.00,Wunderground v.1.15,2013-08-06 23:15:00,
2013-08-06 18:20:00,84.2,63.5,29.72,SW,223,7.0,11.0,50,0.00,,,0.00,Wunderground v.1.15,2013-08-06 23:20:00,
2013-08-06 18:25:00,83.9,64.9,29.72,SSW,213,6.0,7.0,53,0.00,,,0.00,Wunderground v.1.15,2013-08-06 23:25:00,
2013-08-06 18:30:00,83.8,65.4,29.72,SW,218,9.0,12.0,54,0.00,,,0.00,Wunderground v.1.15,2013-08-06 23:30:00,
2013-08-06 18:35:00,83.6,66.2,29.72,SW,232,4.0,8.0,56,0.00,,,0.00,Wunderground v.1.15,2013-08-06 23:35:00,
2013-08-06 18:40:00,83.6,66.2,29.72,WSW,247,9.0,10.0,56,0.00,,,0.00,Wunderground v.1.15,2013-08-06 23:40:00,
2013-08-06 18:45:00,83.5,65.1,29.72,WSW,243,5.0,8.0,54,0.00,,,0.00,Wunderground v.1.15,2013-08-06 23:45:00,
2013-08-06 18:50:00,83.2,65.4,29.72,WSW,237,6.0,10.0,55,0.00,,,0.00,Wunderground v.1.15,2013-08-06 23:50:00,
2013-08-06 18:55:00,82.9,66.6,29.72,SW,219,4.0,7.0,58,0.00,,,0.00,Wunderground v.1.15,2013-08-06 23:55:00,
2013-08-06 19:00:00,82.6,66.8,29.72,SW,223,6.0,8.0,59,0.00,,,0.00,Wunderground v.1.15,2013-08-07 00:00:00,
2013-08-06 19:05:00,82.3,67.5,29.72,SW,230,4.0,6.0,61,0.00,,,0.00,Wunderground v.1.15,2013-08-07 00:05:00,
2013-08-06 19:10:00,82.2,67.9,29.72,WSW,240,3.0,7.0,62,0.00,,,0.00,Wunderground v.1.15,2013-08-07 00:10:00,
2013-08-06 19:15:00,82.1,67.8,29.72,WSW,239,3.0,5.0,62,0.00,,,0.00,Wunderground v.1.15,2013-08-07 00:15:00,
2013-08-06 19:20:00,81.9,67.1,29.72,WSW,244,4.0,9.0,61,0.00,,,0.00,Wunderground v.1.15,2013-08-07 00:20:00,
2013-08-06 19:25:00,81.6,67.3,29.72,WSW,244,4.0,5.0,62,0.00,,,0.00,Wunderground v.1.15,2013-08-07 00:25:00,
2013-08-06 19:30:00,81.0,67.2,29.72,SW,221,3.0,5.0,63,0.00,,,0.00,Wunderground v.1.15,2013-08-07 00:30:00,
2013-08-06 19:35:00,80.4,66.2,29.72,SW,234,4.0,6.0,62,0.00,,,0.00,Wunderground v.1.15,2013-08-07 00:35:00,
2013-08-06 19:40:00,79.9,66.2,29.72,WSW,243,4.0,6.0,63,0.00,,,0.00,Wunderground v.1.15,2013-08-07 00:40:00,
2013-08-06 19:45:00,79.5,65.3,29.72,WSW,239,3.0,5.0,62,0.00,,,0.00,Wunderground v.1.15,2013-08-07 00:45:00,
2013-08-06 19:50:00,79.0,65.8,29.71,SW,219,3.0,5.0,64,0.00,,,0.00,Wunderground v.1.15,2013-08-07 00:50:00,
2013-08-06 19:55:00,78.4,66.1,29.71,SW,222,2.0,4.0,66,0.00,,,0.00,Wunderground v.1.15,2013-08-07 00:55:00,
2013-08-06 20:00:00,77.7,65.9,29.72,SW,229,2.0,4.0,67,0.00,,,0.00,Wunderground v.1.15,2013-08-07 01:00:00,
2013-08-06 20:05:00,77.1,66.1,29.72,SW,229,3.0,4.0,69,0.00,,,0.00,Wunderground v.1.15,2013-08-07 01:05:00,
2013-08-06 20:10:00,76.8,66.3,29.72,SW,221,4.0,5.0,70,0.00,,,0.00,Wunderground v.1.15,2013-08-07 01:10:00,
2013-08-06 20:15:00,76.2,66.1,29.71,SW,214,4.0,6.0,71,0.00,,,0.00,Wunderground v.1.15,2013-08-07 01:15:00,
2013-08-06 20:20:00,76.2,65.7,29.72,WSW,239,3.0,7.0,70,0.00,,,0.00,Wunderground v.1.15,2013-08-07 01:20:00,
2013-08-06 20:25:00,76.0,66.3,29.72,SW,229,3.0,4.0,72,0.00,,,0.00,Wunderground v.1.15,2013-08-07 01:25:00,
2013-08-06 20:31:00,75.4,66.1,29.72,SW,219,5.0,5.0,73,0.00,,,0.00,Wunderground v.1.15,2013-08-07 01:31:00,
2013-08-06 20:36:00,74.9,66.4,29.72,SW,227,4.0,5.0,75,0.00,,,0.00,Wunderground v.1.15,2013-08-07 01:36:00,
2013-08-06 20:41:00,74.5,66.4,29.73,SW,236,4.0,5.0,76,0.00,,,0.00,Wunderground v.1.15,2013-08-07 01:41:00,
2013-08-06 20:46:00,74.0,66.3,29.73,WSW,238,3.0,4.0,77,0.00,,,0.00,Wunderground v.1.15,2013-08-07 01:46:00,
2013-08-06 20:51:00,73.6,66.3,29.73,SW,232,3.0,4.0,78,0.00,,,0.00,Wunderground v.1.15,2013-08-07 01:51:00,
2013-08-06 20:56:00,73.4,66.5,29.74,SW,234,3.0,5.0,79,0.00,,,0.00,Wunderground v.1.15,2013-08-07 01:56:00,
2013-08-06 21:00:00,73.7,66.8,29.74,West,269,3.0,8.0,79,0.00,,,0.00,Wunderground v.1.15,2013-08-07 02:00:00,
2013-08-06 21:06:00,73.9,66.6,29.74,WSW,253,3.0,4.0,78,0.00,,,0.00,Wunderground v.1.15,2013-08-07 02:06:00,
2013-08-06 21:11:00,74.0,66.7,29.74,WSW,253,3.0,4.0,78,0.00,,,0.00,Wunderground v.1.15,2013-08-07 02:11:00,
2013-08-06 21:16:00,74.0,66.7,29.75,West,261,3.0,6.0,78,0.00,,,0.00,Wunderground v.1.15,2013-08-07 02:16:00,
2013-08-06 21:21:00,73.9,67.0,29.75,West,268,2.0,6.0,79,0.00,,,0.00,Wunderground v.1.15,2013-08-07 02:21:00,
2013-08-06 21:26:00,73.8,66.9,29.75,West,268,1.0,3.0,79,0.00,,,0.00,Wunderground v.1.15,2013-08-07 02:26:00,
2013-08-06 21:31:00,73.7,67.1,29.75,West,265,3.0,4.0,80,0.00,,,0.00,Wunderground v.1.15,2013-08-07 02:31:00,
2013-08-06 21:36:00,73.4,66.9,29.75,WNW,286,1.0,4.0,80,0.00,,,0.00,Wunderground v.1.15,2013-08-07 02:36:00,
2013-08-06 21:41:00,73.1,66.9,29.75,WNW,286,3.0,4.0,81,0.00,,,0.00,Wunderground v.1.15,2013-08-07 02:41:00,
2013-08-06 21:46:00,73.0,67.2,29.75,WNW,293,2.0,6.0,82,0.00,,,0.00,Wunderground v.1.15,2013-08-07 02:46:00,
2013-08-06 21:51:00,72.9,67.1,29.76,WNW,288,2.0,6.0,82,0.00,,,0.00,Wunderground v.1.15,2013-08-07 02:51:00,
2013-08-06 21:56:00,72.7,67.2,29.76,West,273,3.0,3.0,83,0.00,,,0.00,Wunderground v.1.15,2013-08-07 02:56:00,
2013-08-06 22:01:00,72.4,66.9,29.76,West,267,3.0,3.0,83,0.00,,,0.00,Wunderground v.1.15,2013-08-07 03:01:00,
2013-08-06 22:06:00,72.2,67.1,29.75,WSW,255,3.0,4.0,84,0.00,,,0.00,Wunderground v.1.15,2013-08-07 03:06:00,
2013-08-06 22:12:00,72.0,67.2,29.75,WSW,250,3.0,4.0,85,0.00,,,0.00,Wunderground v.1.15,2013-08-07 03:12:00,
2013-08-06 22:17:00,71.8,67.4,29.75,West,265,4.0,4.0,86,0.00,,,0.00,Wunderground v.1.15,2013-08-07 03:17:00,
2013-08-06 22:22:00,71.6,67.2,29.75,West,272,3.0,4.0,86,0.00,,,0.00,Wunderground v.1.15,2013-08-07 03:22:00,
2013-08-06 22:27:00,71.3,66.9,29.75,West,276,4.0,4.0,86,0.00,,,0.00,Wunderground v.1.15,2013-08-07 03:27:00,
2013-08-06 22:32:00,71.1,66.7,29.75,West,269,3.0,4.0,86,0.00,,,0.00,Wunderground v.1.15,2013-08-07 03:32:00,
2013-08-06 22:37:00,70.8,66.7,29.75,West,269,4.0,6.0,87,0.00,,,0.00,Wunderground v.1.15,2013-08-07 03:37:00,
2013-08-06 22:42:00,70.5,66.4,29.75,West,275,3.0,6.0,87,0.00,,,0.00,Wunderground v.1.15,2013-08-07 03:42:00,
2013-08-06 22:47:00,70.3,66.6,29.76,WNW,293,4.0,6.0,88,0.00,,,0.00,Wunderground v.1.15,2013-08-07 03:47:00,
2013-08-06 22:52:00,70.1,66.4,29.76,WNW,289,5.0,7.0,88,0.00,,,0.00,Wunderground v.1.15,2013-08-07 03:52:00,
2013-08-06 22:57:00,69.9,66.2,29.76,West,278,3.0,6.0,88,0.00,,,0.00,Wunderground v.1.15,2013-08-07 03:57:00,
2013-08-06 23:01:00,69.7,66.0,29.75,WNW,289,3.0,6.0,88,0.00,,,0.00,Wunderground v.1.15,2013-08-07 04:01:00,
2013-08-06 23:07:00,69.4,66.0,29.76,West,281,3.0,6.0,89,0.00,,,0.00,Wunderground v.1.15,2013-08-07 04:07:00,
2013-08-06 23:12:00,69.5,66.1,29.76,NW,306,3.0,7.0,89,0.00,,,0.00,Wunderground v.1.15,2013-08-07 04:12:00,
2013-08-06 23:17:00,69.4,66.0,29.76,WNW,289,3.0,4.0,89,0.00,,,0.00,Wunderground v.1.15,2013-08-07 04:17:00,
2013-08-06 23:21:00,69.3,65.9,29.76,West,279,2.0,4.0,89,0.00,,,0.00,Wunderground v.1.15,2013-08-07 04:21:00,
2013-08-06 23:27:00,69.1,65.4,29.76,WNW,288,3.0,4.0,88,0.00,,,0.00,Wunderground v.1.15,2013-08-07 04:27:00,
2013-08-06 23:32:00,68.7,65.3,29.76,WNW,287,3.0,5.0,89,0.00,,,0.00,Wunderground v.1.15,2013-08-07 04:32:00,
2013-08-06 23:37:00,68.5,65.1,29.76,West,271,3.0,4.0,89,0.00,,,0.00,Wunderground v.1.15,2013-08-07 04:37:00,
2013-08-06 23:42:00,68.2,64.8,29.76,WNW,282,4.0,6.0,89,0.00,,,0.00,Wunderground v.1.15,2013-08-07 04:42:00,
2013-08-06 23:47:00,68.0,65.0,29.76,West,280,2.0,4.0,90,0.00,,,0.00,Wunderground v.1.15,2013-08-07 04:47:00,
2013-08-06 23:52:00,67.8,64.8,29.76,WNW,287,3.0,6.0,90,0.00,,,0.00,Wunderground v.1.15,2013-08-07 04:52:00,
2013-08-06 23:57:00,67.8,65.1,29.76,WNW,288,3.0,7.0,91,0.00,,,0.00,Wunderground v.1.15,2013-08-07 04:57:00,